Location: Aufkirchen
(47.9603°N, 11.3653°E)
Time: 07:27:59
(UTC+01:00)

Transit 2A - Pass Details

Date: 30 November 2020
Orbit: 599 x 960 km, 66.7° (Epoch: 25 January)

Event Time Altitude Azimuth Distance (km) Brightness Sun altitude
Rises 17:32:00 0° 213° (SSW) 3,625 10.4 -11.0°
Reaches altitude 10° 17:34:35 10° 214° (SW) 2,671 9.7 -11.4°
Maximum altitude 17:40:54 88° 304° (NW) 927 6.4 -12.4°
Enters shadow 17:46:41 11° 35° (NE) 2,463 8.2 -13.3°
Drops below altitude 10° 17:46:51 10° 35° (NE) 2,526 - -13.3°
Sets 17:49:14 0° 35° (NE) 3,416 - -13.7°
